�������l�o���
Date,Time,MP-1(��Sv/h),MP-2(��Sv/h),MP-3(��Sv/h),MP-4(��Sv/h),MP-5(��Sv/h),MP-6(��Sv/h),MP-7(��Sv/h),MP-8(��Sv/h),����,����(m/s),���J
2022/07/11,00:00,0.576,0.839,0.536,1.007,0.721,0.340,0.589,0.558,��,4.3,��
2022/07/11,00:10,0.576,0.839,0.537,1.006,0.721,0.340,0.590,0.557,��,2.5,��
2022/07/11,00:20,0.577,0.837,0.536,1.005,0.721,0.341,0.591,0.559,��쐼,2.0,��
2022/07/11,00:30,0.575,0.834,0.536,1.007,0.721,0.341,0.590,0.557,��,2.5,��
2022/07/11,00:40,0.575,0.839,0.538,1.005,0.721,0.342,0.589,0.557,��쐼,2.9,��
2022/07/11,00:50,0.577,0.838,0.537,1.007,0.719,0.340,0.590,0.557,��쐼,1.7,��
2022/07/11,01:00,0.576,0.840,0.537,1.008,0.719,0.341,0.590,0.556,��,2.2,��
2022/07/11,01:10,0.576,0.838,0.539,1.009,0.721,0.342,0.589,0.558,��쐼,2.0,��
2022/07/11,01:20,0.578,0.838,0.538,1.007,0.720,0.342,0.591,0.558,��쐼,2.2,��
2022/07/11,01:30,0.578,0.840,0.538,1.009,0.721,0.341,0.591,0.557,��쐼,1.7,��
2022/07/11,01:40,0.578,0.839,0.539,1.007,0.723,0.342,0.591,0.557,���쐼,1.2,��
2022/07/11,01:50,0.577,0.838,0.539,1.007,0.721,0.342,0.590,0.557,���k��,0.9,��
2022/07/11,02:00,0.579,0.838,0.539,1.008,0.722,0.341,0.591,0.558,���k��,0.6,��
2022/07/11,02:10,0.579,0.841,0.539,1.008,0.721,0.343,0.589,0.558,�k�k��,0.9,��
2022/07/11,02:20,0.580,0.838,0.539,1.009,0.723,0.342,0.592,0.558,�k�k��,1.7,��
2022/07/11,02:30,0.580,0.839,0.541,1.009,0.721,0.342,0.592,0.558,�k,1.7,��
2022/07/11,02:40,0.579,0.839,0.540,1.008,0.722,0.342,0.591,0.557,�k�k��,3.4,��
2022/07/11,02:50,0.578,0.840,0.538,1.008,0.722,0.342,0.591,0.558,�k�k��,4.0,��
2022/07/11,03:00,0.577,0.838,0.540,1.009,0.722,0.342,0.592,0.558,�k�k��,4.4,��
2022/07/11,03:10,0.576,0.837,0.538,1.006,0.720,0.342,0.589,0.558,�k,3.6,��
2022/07/11,03:20,0.576,0.838,0.539,1.008,0.719,0.342,0.589,0.556,�k,4.0,��
2022/07/11,03:30,0.575,0.837,0.536,1.008,0.718,0.340,0.588,0.556,�k,4.8,��
2022/07/11,03:40,0.574,0.835,0.535,1.007,0.719,0.341,0.589,0.558,�k,4.9,��
2022/07/11,03:50,0.575,0.837,0.535,1.007,0.720,0.341,0.589,0.557,�k,4.9,��
2022/07/11,04:00,0.575,0.835,0.536,1.007,0.720,0.340,0.589,0.557,�k,4.9,��
2022/07/11,04:10,0.576,0.836,0.536,1.006,0.719,0.339,0.589,0.557,�k,4.5,��
2022/07/11,04:20,0.574,0.837,0.536,1.006,0.718,0.339,0.589,0.556,�k,3.9,��
2022/07/11,04:30,0.575,0.837,0.536,1.006,0.719,0.339,0.588,0.555,�k,4.5,��
2022/07/11,04:40,0.575,0.837,0.535,1.005,0.717,0.338,0.589,0.554,�k�k��,4.8,��
2022/07/11,04:50,0.573,0.838,0.537,1.005,0.718,0.339,0.589,0.554,�k,4.3,��
2022/07/11,05:00,0.574,0.837,0.535,1.006,0.717,0.339,0.588,0.556,�k,4.9,�L
2022/07/11,05:10,0.573,0.837,0.536,1.006,0.719,0.338,0.590,0.556,�k,4.1,��
2022/07/11,05:20,0.574,0.836,0.537,1.004,0.717,0.339,0.588,0.555,�k�k��,4.4,��
2022/07/11,05:30,0.573,0.836,0.536,1.005,0.718,0.340,0.588,0.557,�k�k��,4.3,��
2022/07/11,05:40,0.575,0.836,0.536,1.007,0.719,0.340,0.588,0.557,�k�k��,4.9,�L
2022/07/11,05:50,0.573,0.836,0.537,1.006,0.719,0.339,0.590,0.557,�k�k��,5.1,��
2022/07/11,06:00,0.571,0.837,0.537,1.007,0.720,0.340,0.588,0.554,�k�k��,4.5,�L
2022/07/11,06:10,0.574,0.837,0.536,1.005,0.720,0.340,0.587,0.554,�k�k��,4.4,��
2022/07/11,06:20,0.575,0.836,0.537,1.007,0.717,0.340,0.588,0.556,�k�k��,3.9,�L
2022/07/11,06:30,0.573,0.837,0.536,1.006,0.720,0.340,0.588,0.557,�k�k��,3.3,��
2022/07/11,06:40,0.576,0.839,0.537,1.006,0.720,0.340,0.588,0.556,�k�k��,3.4,�L
2022/07/11,06:50,0.575,0.838,0.537,1.006,0.720,0.341,0.589,0.554,�k��,3.1,��
2022/07/11,07:00,0.574,0.837,0.535,1.005,0.720,0.341,0.588,0.557,�k�k��,3.2,�L
2022/07/11,07:10,0.574,0.834,0.535,1.006,0.721,0.340,0.590,0.556,�k�k��,3.5,�L
2022/07/11,07:20,0.574,0.835,0.537,1.009,0.719,0.342,0.589,0.555,�k�k��,4.1,�L
2022/07/11,07:30,0.573,0.834,0.535,1.005,0.719,0.340,0.588,0.555,�k�k��,3.9,��
2022/07/11,07:40,0.573,0.834,0.535,1.004,0.718,0.340,0.590,0.555,�k,3.2,��
2022/07/11,07:50,0.573,0.835,0.537,1.005,0.718,0.340,0.589,0.555,�k,3.8,��
2022/07/11,08:00,0.572,0.835,0.536,1.006,0.719,0.338,0.593,0.556,�k�k��,4.2,��
2022/07/11,08:10,0.572,0.834,0.535,1.007,0.718,0.340,0.589,0.555,�k,4.8,��
2022/07/11,08:20,0.575,0.833,0.534,1.006,0.718,0.339,0.590,0.556,�k�k��,5.4,��
2022/07/11,08:30,0.573,0.833,0.535,1.006,0.719,0.339,0.588,0.555,�k�k��,5.4,��
2022/07/11,08:40,0.573,0.834,0.535,1.007,0.717,0.340,0.588,0.555,�k�k��,5.1,��
2022/07/11,08:50,0.572,0.833,0.534,1.006,0.719,0.339,0.588,0.554,�k�k��,5.6,��
2022/07/11,09:00,0.573,0.832,0.533,1.007,0.718,0.339,0.589,0.554,�k�k��,5.2,��
2022/07/11,09:10,0.574,0.831,0.533,1.007,0.719,0.341,0.589,0.554,�k�k��,4.7,�L
2022/07/11,09:20,0.573,0.831,0.533,1.006,0.718,0.339,0.588,0.553,�k�k��,3.8,�L
2022/07/11,09:30,0.574,0.831,0.532,1.005,0.717,0.338,0.588,0.554,�k�k��,2.3,�L
2022/07/11,09:40,0.573,0.832,0.534,1.007,0.717,0.340,0.588,0.555,�k�k��,2.6,��
2022/07/11,09:50,0.573,0.833,0.534,1.005,0.717,0.339,0.588,0.553,�k,2.0,��
2022/07/11,10:00,0.574,0.833,0.534,1.005,0.718,0.339,0.588,0.554,�k��,1.7,��
2022/07/11,10:10,0.572,0.831,0.535,1.005,0.719,0.339,0.589,0.556,�k��,1.9,��
2022/07/11,10:20,0.573,0.833,0.533,1.005,0.719,0.340,0.588,0.556,�k�k��,1.7,��
2022/07/11,10:30,0.572,0.833,0.535,1.005,0.720,0.339,0.589,0.554,�k�k��,3.1,��
2022/07/11,10:40,0.574,0.833,0.534,1.006,0.720,0.340,0.590,0.554,�k�k��,2.3,��
2022/07/11,10:50,0.574,0.832,0.535,1.007,0.720,0.339,0.590,0.554,�k,3.0,��
2022/07/11,11:00,0.573,0.831,0.536,1.007,0.719,0.340,0.588,0.556,�k,2.6,��
2022/07/11,11:10,0.575,0.831,0.535,1.006,0.721,0.340,0.591,0.555,�k,2.0,��
2022/07/11,11:20,0.575,0.834,0.536,1.007,0.720,0.339,0.589,0.553,�k�k��,2.3,��
2022/07/11,11:30,0.575,0.833,0.536,1.007,0.721,0.338,0.590,0.554,�k��,2.3,��
2022/07/11,11:40,0.576,0.834,0.535,1.006,0.717,0.339,0.590,0.556,�k�k��,1.2,��
2022/07/11,11:50,0.577,0.835,0.536,1.008,0.718,0.339,0.591,0.557,��,1.7,��
2022/07/11,12:00,0.576,0.835,0.536,1.006,0.718,0.340,0.591,0.556,�k,1.5,��
2022/07/11,12:10,0.576,0.837,0.536,1.005,0.720,0.340,0.590,0.556,���k��,0.9,��
2022/07/11,12:20,0.577,0.838,0.536,1.005,0.719,0.341,0.590,0.555,�k,0.8,��
2022/07/11,12:30,0.577,0.837,0.536,1.006,0.721,0.341,0.590,0.557,�k��,1.2,��
2022/07/11,12:40,0.578,0.837,0.537,1.006,0.720,0.340,0.590,0.557,�k�k��,1.2,��
2022/07/11,12:50,0.578,0.840,0.536,1.004,0.721,0.340,0.590,0.556,�k��,1.7,��
2022/07/11,13:00,0.579,0.837,0.536,1.006,0.721,0.339,0.591,0.555,�k��,2.2,��
2022/07/11,13:10,0.577,0.838,0.536,1.005,0.722,0.340,0.590,0.556,�k��,2.2,��
2022/07/11,13:20,0.578,0.839,0.536,1.004,0.723,0.340,0.591,0.556,�k��,2.3,��
2022/07/11,13:30,0.577,0.841,0.538,1.005,0.723,0.342,0.590,0.557,���k��,3.9,��
2022/07/11,13:40,0.578,0.839,0.538,1.007,0.723,0.340,0.591,0.557,�k��,3.5,��
2022/07/11,13:50,0.578,0.840,0.537,1.006,0.721,0.340,0.591,0.557,�k��,3.8,��
2022/07/11,14:00,0.576,0.840,0.538,1.007,0.722,0.340,0.591,0.556,�k��,4.8,��
2022/07/11,14:10,0.576,0.841,0.538,1.009,0.722,0.342,0.590,0.556,��,4.0,��
2022/07/11,14:20,0.580,0.837,0.537,1.009,0.723,0.342,0.590,0.557,���쓌,3.6,��
2022/07/11,14:30,0.578,0.838,0.537,1.007,0.724,0.339,0.590,0.557,���쓌,2.2,��
2022/07/11,14:40,0.578,0.837,0.535,1.008,0.725,0.341,0.591,0.557,��,2.3,��
2022/07/11,14:50,0.579,0.840,0.538,1.008,0.722,0.340,0.590,0.557,���k��,1.2,��
2022/07/11,15:00,0.579,0.840,0.538,1.007,0.725,0.342,0.592,0.557,���k��,2.8,��
2022/07/11,15:10,0.578,0.841,0.537,1.007,0.724,0.341,0.592,0.556,��,2.9,��
2022/07/11,15:20,0.578,0.840,0.538,1.008,0.724,0.343,0.593,0.558,��,1.4,��
2022/07/11,15:30,0.580,0.839,0.537,1.007,0.724,0.341,0.592,0.556,��,1.7,��
2022/07/11,15:40,0.578,0.839,0.538,1.009,0.726,0.342,0.591,0.556,��,2.3,��
2022/07/11,15:50,0.577,0.840,0.537,1.009,0.723,0.343,0.592,0.557,��,3.7,��
2022/07/11,16:00,0.577,0.840,0.537,1.011,0.724,0.341,0.593,0.559,��,2.8,��
2022/07/11,16:10,0.579,0.841,0.537,1.012,0.724,0.341,0.591,0.556,���쓌,3.0,��
2022/07/11,16:20,0.579,0.841,0.538,1.010,0.723,0.342,0.591,0.558,��,2.9,��
2022/07/11,16:30,0.580,0.840,0.538,1.008,0.725,0.342,0.591,0.556,��,1.9,��
2022/07/11,16:40,0.583,0.843,0.538,1.009,0.725,0.340,0.592,0.555,��,1.4,��
2022/07/11,16:50,0.580,0.844,0.537,1.011,0.724,0.340,0.592,0.557,��,1.1,��
2022/07/11,17:00,0.581,0.842,0.537,1.010,0.723,0.341,0.592,0.556,�k��,0.9,��
2022/07/11,17:10,0.583,0.841,0.538,1.010,0.723,0.341,0.592,0.556,���k��,2.2,��
2022/07/11,17:20,0.582,0.843,0.538,1.011,0.724,0.341,0.592,0.557,���k��,2.3,��
2022/07/11,17:30,0.581,0.842,0.536,1.010,0.722,0.343,0.592,0.556,���k��,2.6,��
2022/07/11,17:40,0.580,0.842,0.538,1.010,0.723,0.341,0.591,0.556,���k��,2.0,��
2022/07/11,17:50,0.583,0.842,0.538,1.008,0.724,0.342,0.591,0.557,���k��,1.5,��
2022/07/11,18:00,0.584,0.844,0.537,1.011,0.727,0.342,0.591,0.555,���k��,1.2,��
2022/07/11,18:10,0.584,0.841,0.537,1.011,0.727,0.342,0.591,0.556,���k��,2.6,��
2022/07/11,18:20,0.583,0.842,0.538,1.011,0.728,0.342,0.591,0.556,���k��,2.8,��
2022/07/11,18:30,0.583,0.845,0.538,1.010,0.724,0.343,0.590,0.556,�k��,1.4,��
2022/07/11,18:40,0.583,0.844,0.539,1.011,0.727,0.341,0.590,0.557,�k�k��,0.6,��
2022/07/11,18:50,0.583,0.844,0.538,1.010,0.726,0.342,0.593,0.558,���k��,0.9,��
2022/07/11,19:00,0.583,0.847,0.539,1.014,0.727,0.341,0.591,0.558,���k��,1.5,��
2022/07/11,19:10,0.582,0.844,0.539,1.014,0.725,0.342,0.591,0.558,�k�k��,1.4,��
2022/07/11,19:20,0.583,0.845,0.539,1.014,0.726,0.342,0.592,0.558,�k�k��,1.5,�L
2022/07/11,19:30,0.584,0.844,0.540,1.011,0.728,0.344,0.591,0.558,�k��,1.4,��
2022/07/11,19:40,0.584,0.845,0.539,1.014,0.726,0.341,0.594,0.558,�k�k��,1.7,��
2022/07/11,19:50,0.583,0.845,0.539,1.012,0.726,0.342,0.591,0.558,�k,2.3,��
2022/07/11,20:00,0.582,0.844,0.540,1.014,0.725,0.341,0.592,0.558,�k,2.3,��
2022/07/11,20:10,0.582,0.846,0.539,1.013,0.724,0.342,0.592,0.560,�k,2.0,��
2022/07/11,20:20,0.583,0.844,0.539,1.013,0.726,0.341,0.591,0.555,�k,2.2,�L
2022/07/11,20:30,0.582,0.844,0.541,1.012,0.727,0.341,0.593,0.558,�k,2.2,�L
2022/07/11,20:40,0.583,0.845,0.539,1.014,0.724,0.341,0.592,0.557,�k�k��,1.9,��
2022/07/11,20:50,0.582,0.845,0.539,1.013,0.724,0.340,0.593,0.558,�k,1.2,��
2022/07/11,21:00,0.580,0.843,0.540,1.014,0.724,0.339,0.593,0.557,�k�k��,1.4,��
2022/07/11,21:10,0.583,0.843,0.538,1.012,0.726,0.340,0.593,0.558,�k,1.2,��
2022/07/11,21:20,0.583,0.844,0.537,1.013,0.726,0.341,0.591,0.558,�k�k��,1.5,��
2022/07/11,21:30,0.584,0.845,0.540,1.014,0.725,0.339,0.591,0.557,�k,1.4,��
2022/07/11,21:40,0.581,0.843,0.540,1.014,0.725,0.340,0.591,0.558,�k�k��,1.5,�L
2022/07/11,21:50,0.582,0.844,0.539,1.011,0.726,0.341,0.592,0.557,�k�k��,1.4,��
2022/07/11,22:00,0.583,0.844,0.540,1.012,0.725,0.342,0.592,0.556,�k�k��,1.2,�L
2022/07/11,22:10,0.584,0.842,0.539,1.012,0.724,0.341,0.592,0.557,�k�k��,1.2,��
2022/07/11,22:20,0.582,0.845,0.538,1.012,0.726,0.340,0.592,0.559,�k�k��,1.4,��
2022/07/11,22:30,0.582,0.845,0.539,1.011,0.726,0.340,0.594,0.558,�k��,1.4,��
2022/07/11,22:40,0.582,0.843,0.540,1.012,0.727,0.340,0.592,0.558,�k�k��,1.9,�L
2022/07/11,22:50,0.581,0.843,0.538,1.013,0.723,0.340,0.593,0.557,�k,1.7,�L
2022/07/11,23:00,0.581,0.844,0.540,1.012,0.724,0.341,0.591,0.558,�k,1.4,��
2022/07/11,23:10,0.582,0.842,0.538,1.013,0.725,0.342,0.591,0.558,�k�k��,1.1,��
2022/07/11,23:20,0.581,0.843,0.539,1.014,0.724,0.341,0.593,0.557,�k�k��,0.9,��
2022/07/11,23:30,0.580,0.842,0.538,1.011,0.725,0.340,0.591,0.559,�k,0.9,�L
2022/07/11,23:40,0.581,0.842,0.539,1.010,0.725,0.341,0.592,0.556,�k,1.1,�L
2022/07/11,23:50,0.581,0.842,0.538,1.015,0.723,0.340,0.594,0.558,�k,0.9,�L
